Regional Weather Roundup
Issued by NWS Little Rock, AR

Home | Current Version | Previous Version | Graphics & Text | Print | Product List | Glossary On
Versions: 1 2 3 4 5 6 7 8 9 10 11 12 13 14 15 16 17 18 19 20 21 22 23 24 25 26 27 28 29 30 31 32 33 34 35 36 37 38 39 40 41 42 43 44 45 46 47 48 49 50
000
ASUS44 KLZK 011705
RWRLZK

WEATHER ROUNDUP FOR ARKANSAS
NATIONAL WEATHER SERVICE LITTLE ROCK AR
1200 PM CDT MON SEP 01 2014

NOTE: "FAIR" INDICATES FEW OR NO CLOUDS BELOW 12,000 FEET WITH NO
SIGNIFICANT WEATHER AND/OR OBSTRUCTIONS TO VISIBILITY.

ARZ001-003-010-029-011800-
NORTHWEST ARKANSAS

CITY           SKY/WX    TMP DP  RH WIND       PRES   REMARKS
FAYETTEVILLE   CLOUDY    75  68  78 E8        30.01F
FORT SMITH     PTSUNNY   87  69  54 SE9       29.96F HX  91
HARRISON       CLOUDY    72  65  78 SE8       30.05F
BENTONVILLE    CLOUDY    72  64  78 SE14G28   30.01F
ROGERS         PTSUNNY   70  64  81 E17G23    30.02F
HIGHFILL       CLOUDY    71  32  23 E16G23    30.00F
SPRINGDALE     MOSUNNY   70  66  88 E13       30.03F
$$

ARZ004-005-016-011800-
NORTH CENTRAL ARKANSAS

CITY           SKY/WX    TMP DP  RH WIND       PRES   REMARKS
BATESVILLE     PTSUNNY   88  72  58 SW10      30.02S HX  94
FLIPPIN        PTSUNNY   77  63  61 E7        30.04F
MTN HOME       PTSUNNY   75  64  68 SE7       30.03F
$$

ARZ040-041-011800-
WEST CENTRAL ARKANSAS

CITY           SKY/WX    TMP DP  RH WIND       PRES   REMARKS
MENA           MOSUNNY   86  72  62 CALM      30.02F HX  92
MOUNT IDA      MOSUNNY   85  71  63 VRB5      30.00F HX  90
$$

ARZ009-017-025-026-028-011800-
NORTHEAST ARKANSAS

CITY           SKY/WX    TMP DP  RH WIND       PRES   REMARKS
CORNING          N/A     84  73  70 SW13      30.01F HX  91
JONESBORO      MOSUNNY   87  72  60 W10G21    30.02F HX  93
NEWPORT        PTSUNNY   89  74  61 SW14      30.03F HX  97
WALNUT RIDGE   MOSUNNY   84  66  54 SW10      30.00F HX  86
BLYTHEVILLE    PTSUNNY   84  74  71 W12G18    30.04S HX  91
$$

ARZ022-023-033-042-044-011800-
CENTRAL ARKANSAS

CITY           SKY/WX    TMP DP  RH WIND       PRES   REMARKS
LITTLE ROCK    PTSUNNY   85  71  63 S8        30.04S HX  90
N LITTLE ROCK  PTSUNNY   85  73  68 S7        30.04S HX  92
JACKSONVILLE   MOSUNNY   86  72  62 VRB5      30.03F HX  92
SEARCY         MOSUNNY   89  73  59 MISG      30.03F HX  96
HOT SPRINGS    MOSUNNY   86  71  60 SW7       30.03F HX  91
RUSSELLVILLE   CLOUDY    87  73  62 VRB5      30.01F HX  94
CLINTON        PTSUNNY   84  73  70 CALM      30.03S HAZE    HX  91
$$

ARZ036-011800-
EAST ARKANSAS

CITY           SKY/WX    TMP DP  RH WIND       PRES   REMARKS
WEST MEMPHIS   MOSUNNY   85  74  69 SW9       30.04F HX  92
$$

ARZ050-053-066-070-073-011800-
SOUTHWEST ARKANSAS

CITY           SKY/WX    TMP DP  RH WIND       PRES   REMARKS
ARKADELPHIA    PTSUNNY   88  76  67 S8        30.03F HX  99
CAMDEN         MOSUNNY   86  73  66 SW7       30.03S HX  93
TEXARKANA      PTSUNNY   86  71  60 SW8       30.01S HX  91
EL DORADO      MOSUNNY   87  74  64 S9        30.03F HX  95
DE QUEEN       MOSUNNY   85  73  67 SW7       29.99S HX  91
$$

ARZ056-057-069-011800-
SOUTHEAST ARKANSAS

CITY           SKY/WX    TMP DP  RH WIND       PRES   REMARKS
PINE BLUFF     CLOUDY    82  73  74 W6        30.06S HX  87
STUTTGART      MOSUNNY   84  73  70 SW10      30.06F HX  91
MONTICELLO     PTSUNNY   83  74  74 W6        30.06S HX  89

$$





USA.gov is the U.S. government's official web portal to all federal, state and local government web resources and services.